| time (UTC) | temp C | wind direction | speed KPH | gust KPH | rain 1hr cm | rain 24hr cm | rain mn cm | humidity % | barometer mb |
| 20260901092012 | 32 | 90 | 0.0 | 3.2 | 0.00 | 0.00 | 0.00 | 35 | 1005.0 |
| 20260901090758 | 33 | 90 | 0.0 | 0.0 | 0.00 | 0.00 | 0.00 | 32 | 1005.0 |
| 20260901085012 | 35 | 90 | 0.0 | 0.0 | 0.00 | 0.00 | 0.00 | 29 | 1004.0 |
| 20260901083757 | 35 | 90 | 0.0 | 0.0 | 0.00 | 0.00 | 0.00 | 29 | 1004.0 |
| 20260901083512 | 35 | 90 | 0.0 | 0.0 | 0.00 | 0.00 | 0.00 | 29 | 1004.0 |
| 20260901082012 | 34 | 0 | 0.0 | 0.0 | 0.00 | 0.00 | 0.00 | 30 | 1004.0 |
| 20260901080757 | 34 | 0 | 0.0 | 0.0 | 0.00 | 0.00 | 0.00 | 29 | 1004.0 |
| 20260901080513 | 35 | 0 | 3.2 | 3.2 | 0.00 | 0.00 | 0.00 | 28 | 1004.0 |
| 20260901075013 | 36 | 0 | 0.0 | 0.0 | 0.00 | 0.00 | 0.00 | 27 | 1004.0 |
| 20260901073758 | 35 | 0 | 0.0 | 3.2 | 0.00 | 0.00 | 0.00 | 29 | 1004.0 |
| 20260901073513 | 34 | 0 | 0.0 | 0.0 | 0.00 | 0.00 | 0.00 | 30 | 1004.0 |
| 20260901070757 | 34 | 270 | 0.0 | 0.0 | 0.00 | 0.00 | 0.00 | 30 | 1004.0 |
| 20260901070512 | 34 | 270 | 1.6 | 3.2 | 0.00 | 0.00 | 0.00 | 29 | 1004.0 |
| 20260901063756 | 35 | 225 | 0.0 | 0.0 | 0.00 | 0.00 | 0.00 | 28 | 1004.0 |
| 20260901062013 | 35 | 135 | 0.0 | 0.0 | 0.00 | 0.00 | 0.00 | 27 | 1004.0 |
| 20260901060757 | 36 | 135 | 0.0 | 0.0 | 0.00 | 0.00 | 0.00 | 26 | 1004.0 |
| 20260901053757 | 37 | 135 | 0.0 | 0.0 | 0.00 | 0.00 | 0.00 | 20 | 1004.0 |
| 20260901053512 | 38 | 135 | 0.0 | 0.0 | 0.00 | 0.00 | 0.00 | 19 | 1004.0 |
| 20260901052013 | 39 | 135 | 0.0 | 0.0 | 0.00 | 0.00 | 0.00 | 17 | 1004.0 |
| 20260901050757 | 38 | 135 | 0.0 | 0.0 | 0.00 | 0.00 | 0.00 | 18 | 1004.0 |
| 20260901050512 | 38 | 135 | 0.0 | 3.2 | 0.00 | 0.00 | 0.00 | 19 | 1004.0 |
| 20260901045012 | 38 | 135 | 0.0 | 0.0 | 0.00 | 0.00 | 0.00 | 19 | 1004.0 |
| 20260901043757 | 38 | 135 | 0.0 | 0.0 | 0.00 | 0.00 | 0.00 | 19 | 1004.0 |
| 20260901043512 | 38 | 135 | 0.0 | 0.0 | 0.00 | 0.00 | 0.00 | 20 | 1004.0 |
| 20260901042012 | 37 | 135 | 0.0 | 0.0 | 0.00 | 0.00 | 0.00 | 22 | 1004.0 |
| 20260901040757 | 37 | 135 | 0.0 | 3.2 | 0.00 | 0.00 | 0.00 | 24 | 1004.0 |
| 20260901040512 | 37 | 135 | 0.0 | 0.0 | 0.00 | 0.00 | 0.00 | 24 | 1004.0 |
| 20260901033757 | 36 | 135 | 0.0 | 4.8 | 0.00 | 0.00 | 0.00 | 26 | 1005.0 |
| 20260901032012 | 36 | 135 | 0.0 | 4.8 | 0.00 | 0.00 | 0.00 | 26 | 1005.0 |
| 20260901030756 | 36 | 135 | 3.2 | 0.0 | 0.00 | 0.00 | 0.00 | 26 | 1005.0 |
| 20260901025014 | 35 | 270 | 0.0 | 3.2 | 0.00 | 0.00 | 0.00 | 28 | 1005.0 |
| 20260901023759 | 35 | 270 | 0.0 | 3.2 | 0.00 | 0.00 | 0.00 | 27 | 1005.0 |
| 20260901023514 | 35 | 270 | 0.0 | 3.2 | 0.00 | 0.00 | 0.00 | 28 | 1005.0 |
| 20260901022014 | 35 | 270 | 0.0 | 3.2 | 0.00 | 0.00 | 0.00 | 29 | 1005.0 |
| 20260901020759 | 34 | 270 | 0.0 | 3.2 | 0.00 | 0.00 | 0.00 | 29 | 1005.0 |
| 20260901020514 | 34 | 270 | 0.0 | 3.2 | 0.00 | 0.00 | 0.00 | 29 | 1005.0 |
| 20260901015014 | 33 | 270 | 0.0 | 0.0 | 0.00 | 0.00 | 0.00 | 32 | 1005.0 |
| 20260901013759 | 32 | 270 | 0.0 | 0.0 | 0.00 | 0.00 | 0.00 | 34 | 1006.0 |
| 20260901013514 | 32 | 270 | 0.0 | 0.0 | 0.00 | 0.00 | 0.00 | 34 | 1006.0 |
| 20260901012015 | 32 | 270 | 0.0 | 0.0 | 0.00 | 0.00 | 0.00 | 37 | 1006.0 |
| 20260901010759 | 32 | 270 | 0.0 | 0.0 | 0.00 | 0.00 | 0.00 | 37 | 1006.0 |
| 20260901010514 | 32 | 270 | 0.0 | 0.0 | 0.00 | 0.00 | 0.00 | 37 | 1006.0 |
| 20260901003800 | 31 | 270 | 0.0 | 0.0 | 0.00 | 0.00 | 0.00 | 39 | 1006.0 |
| 20260901003515 | 31 | 270 | 0.0 | 0.0 | 0.00 | 0.00 | 0.00 | 39 | 1006.0 |
| 20260901002014 | 31 | 270 | 0.0 | 0.0 | 0.00 | 0.00 | 0.00 | 40 | 1006.0 |
| 20260901000759 | 31 | 270 | 0.0 | 0.0 | 0.00 | 0.00 | 0.00 | 40 | 1006.0 |
| 20260901000514 | 31 | 270 | 0.0 | 0.0 | 0.00 | 0.00 | 0.00 | 40 | 1006.0 |
| 20260831235043 | 31 | 270 | 0.0 | 0.0 | 0.00 | 0.00 | 0.00 | 41 | 1005.0 |
| 20260831233759 | 30 | 270 | 0.0 | 0.0 | 0.00 | 0.00 | 0.00 | 43 | 1006.0 |
| 20260831232129 | 30 | 270 | 0.0 | 3.2 | 0.00 | 0.00 | 0.00 | 44 | 1006.0 |
| 20260831230800 | 30 | 270 | 0.0 | 0.0 | 0.00 | 0.00 | 0.00 | 46 | 1006.0 |
| 20260831230515 | 30 | 270 | 0.0 | 0.0 | 0.00 | 0.00 | 0.00 | 46 | 1006.0 |
| 20260831225014 | 29 | 135 | 0.0 | 0.0 | 0.00 | 0.00 | 0.00 | 48 | 1006.0 |
| 20260831223800 | 29 | 135 | 0.0 | 0.0 | 0.00 | 0.00 | 0.00 | 50 | 1006.0 |
| 20260831223515 | 29 | 135 | 0.0 | 0.0 | 0.00 | 0.00 | 0.00 | 49 | 1006.0 |
| 20260831222015 | 28 | 135 | 0.0 | 0.0 | 0.00 | 0.00 | 0.00 | 53 | 1006.0 |
| 20260831220800 | 28 | 135 | 0.0 | 0.0 | 0.00 | 0.00 | 0.00 | 56 | 1006.0 |
| 20260831220515 | 28 | 135 | 0.0 | 0.0 | 0.00 | 0.00 | 0.00 | 56 | 1006.0 |
| 20260831215015 | 27 | 180 | 0.0 | 0.0 | 0.00 | 0.00 | 0.00 | 59 | 1006.0 |
| 20260831213759 | 27 | 180 | 0.0 | 0.0 | 0.00 | 0.00 | 0.00 | 59 | 1006.0 |
| 20260831213514 | 27 | 180 | 0.0 | 0.0 | 0.00 | 0.00 | 0.00 | 59 | 1006.0 |
| 20260831212015 | 27 | 180 | 0.0 | 3.2 | 0.00 | 0.00 | 0.00 | 62 | 1005.0 |
| 20260831210800 | 27 | 135 | 0.0 | 0.0 | 0.00 | 0.00 | 0.00 | 63 | 1005.0 |
| 20260831210515 | 27 | 135 | 0.0 | 0.0 | 0.00 | 0.00 | 0.00 | 63 | 1005.0 |
| 20260831205014 | 27 | 135 | 0.0 | 0.0 | 0.00 | 0.00 | 0.00 | 63 | 1005.0 |
| 20260831203758 | 27 | 135 | 0.0 | 0.0 | 0.00 | 0.00 | 0.00 | 63 | 1005.0 |
| 20260831203513 | 27 | 135 | 0.0 | 0.0 | 0.00 | 0.00 | 0.00 | 63 | 1005.0 |
| 20260831202013 | 27 | 135 | 0.0 | 0.0 | 0.00 | 0.00 | 0.00 | 62 | 1005.0 |
| 20260831200758 | 27 | 135 | 0.0 | 0.0 | 0.00 | 0.00 | 0.00 | 61 | 1005.0 |
| 20260831200513 | 27 | 135 | 0.0 | 0.0 | 0.00 | 0.00 | 0.00 | 62 | 1005.0 |
| 20260831195013 | 27 | 135 | 1.6 | 9.7 | 0.00 | 0.00 | 0.00 | 61 | 1005.0 |
| 20260831193759 | 27 | 0 | 0.0 | 0.0 | 0.00 | 0.00 | 0.00 | 62 | 1005.0 |
| 20260831193514 | 27 | 0 | 0.0 | 0.0 | 0.00 | 0.00 | 0.00 | 62 | 1005.0 |
| 20260831192014 | 27 | 0 | 0.0 | 0.0 | 0.00 | 0.00 | 0.00 | 60 | 1005.0 |
| 20260831190758 | 27 | 0 | 0.0 | 0.0 | 0.00 | 0.00 | 0.00 | 61 | 1005.0 |
| 20260831190513 | 27 | 0 | 0.0 | 0.0 | 0.00 | 0.00 | 0.00 | 60 | 1005.0 |
| 20260831185014 | 27 | 0 | 0.0 | 0.0 | 0.00 | 0.00 | 0.00 | 59 | 1005.0 |
| 20260831183759 | 28 | 0 | 0.0 | 0.0 | 0.00 | 0.00 | 0.00 | 59 | 1005.0 |
| 20260831183514 | 28 | 0 | 0.0 | 0.0 | 0.00 | 0.00 | 0.00 | 58 | 1005.0 |
| 20260831182013 | 28 | 135 | 0.0 | 3.2 | 0.00 | 0.00 | 0.00 | 57 | 1005.0 |
| 20260831180759 | 28 | 135 | 0.0 | 0.0 | 0.00 | 0.00 | 0.00 | 56 | 1005.0 |
| 20260831180514 | 28 | 135 | 0.0 | 0.0 | 0.00 | 0.00 | 0.00 | 56 | 1005.0 |
| 20260831175013 | 28 | 135 | 0.0 | 0.0 | 0.00 | 0.00 | 0.00 | 55 | 1005.0 |
| 20260831173758 | 28 | 135 | 0.0 | 3.2 | 0.00 | 0.00 | 0.00 | 55 | 1005.0 |
| 20260831173513 | 28 | 135 | 0.0 | 3.2 | 0.00 | 0.00 | 0.00 | 55 | 1005.0 |
| 20260831172013 | 28 | 180 | 0.0 | 0.0 | 0.00 | 0.00 | 0.00 | 55 | 1005.0 |
| 20260831170800 | 28 | 199 | 0.0 | 4.8 | 0.00 | 0.00 | 0.00 | 56 | 1005.0 |
| 20260831170515 | 28 | 180 | 0.0 | 3.2 | 0.00 | 0.00 | 0.00 | 56 | 1005.0 |
| 20260831165014 | 28 | 135 | 0.0 | 4.8 | 0.00 | 0.00 | 0.00 | 55 | 1005.0 |
| 20260831163758 | 28 | 135 | 0.0 | 0.0 | 0.00 | 0.00 | 0.00 | 55 | 1005.0 |
| 20260831163513 | 28 | 135 | 0.0 | 3.2 | 0.00 | 0.00 | 0.00 | 55 | 1005.0 |
| 20260831160758 | 28 | 135 | 0.0 | 0.0 | 0.00 | 0.00 | 0.00 | 53 | 1005.0 |
| 20260831160515 | 28 | 135 | 0.0 | 0.0 | 0.00 | 0.00 | 0.00 | 52 | 1005.0 |
| 20260831155015 | 28 | 135 | 0.0 | 0.0 | 0.00 | 0.00 | 0.00 | 50 | 1005.0 |
| 20260831153759 | 29 | 135 | 0.0 | 0.0 | 0.00 | 0.00 | 0.00 | 49 | 1005.0 |
| 20260831153514 | 29 | 135 | 0.0 | 0.0 | 0.00 | 0.00 | 0.00 | 49 | 1005.0 |
| 20260831150759 | 29 | 135 | 0.0 | 0.0 | 0.00 | 0.00 | 0.00 | 49 | 1005.0 |
| 20260831150514 | 29 | 135 | 0.0 | 0.0 | 0.00 | 0.00 | 0.00 | 49 | 1005.0 |
| 20260831143758 | 29 | 135 | 0.0 | 0.0 | 0.00 | 0.00 | 0.00 | 50 | 1005.0 |
| 20260831143513 | 29 | 135 | 0.0 | 0.0 | 0.00 | 0.00 | 0.00 | 50 | 1005.0 |
| 20260831142014 | 30 | 135 | 0.0 | 0.0 | 0.00 | 0.00 | 0.00 | 50 | 1005.0 |
| 20260831140759 | 30 | 135 | 0.0 | 0.0 | 0.00 | 0.00 | 0.00 | 50 | 1005.0 |
| 20260831140514 | 30 | 135 | 0.0 | 0.0 | 0.00 | 0.00 | 0.00 | 49 | 1005.0 |
| 20260831135014 | 30 | 135 | 0.0 | 0.0 | 0.00 | 0.00 | 0.00 | 49 | 1005.0 |
| 20260831133759 | 30 | 135 | 0.0 | 0.0 | 0.00 | 0.00 | 0.00 | 49 | 1005.0 |
| 20260831133514 | 30 | 135 | 0.0 | 0.0 | 0.00 | 0.00 | 0.00 | 49 | 1005.0 |
| 20260831130758 | 30 | 135 | 0.0 | 0.0 | 0.00 | 0.00 | 0.00 | 47 | 1004.0 |
| 20260831123758 | 30 | 135 | 0.0 | 0.0 | 0.00 | 0.00 | 0.00 | 45 | 1004.0 |
| 20260831123514 | 30 | 135 | 0.0 | 0.0 | 0.00 | 0.00 | 0.00 | 45 | 1004.0 |
| 20260831122012 | 30 | 135 | 0.0 | 0.0 | 0.00 | 0.00 | 0.00 | 44 | 1004.0 |
| 20260831120757 | 30 | 135 | 0.0 | 0.0 | 0.00 | 0.00 | 0.00 | 44 | 1004.0 |
| 20260831120513 | 30 | 135 | 0.0 | 0.0 | 0.00 | 0.00 | 0.00 | 44 | 1004.0 |
| 20260831115013 | 30 | 135 | 0.0 | 0.0 | 0.00 | 0.00 | 0.00 | 47 | 1004.0 |
| 20260831113758 | 29 | 135 | 4.8 | 8.0 | 0.00 | 0.00 | 0.00 | 48 | 1004.0 |
| 20260831113513 | 29 | 135 | 3.2 | 8.0 | 0.00 | 0.00 | 0.00 | 48 | 1004.0 |
| 20260831112014 | 29 | 135 | 4.8 | 9.7 | 0.00 | 0.00 | 0.00 | 47 | 1004.0 |
| 20260831110759 | 30 | 135 | 3.2 | 9.7 | 0.00 | 0.00 | 0.00 | 45 | 1004.0 |
| 20260831110514 | 30 | 135 | 1.6 | 3.2 | 0.00 | 0.00 | 0.00 | 45 | 1004.0 |
| 20260831105013 | 30 | 135 | 0.0 | 0.0 | 0.00 | 0.00 | 0.00 | 45 | 1004.0 |
| 20260831103757 | 30 | 135 | 1.6 | 4.8 | 0.00 | 0.00 | 0.00 | 46 | 1004.0 |
| 20260831103513 | 30 | 135 | 0.0 | 3.2 | 0.00 | 0.00 | 0.00 | 46 | 1004.0 |
| 20260831102013 | 30 | 135 | 3.2 | 12.9 | 0.00 | 0.00 | 0.00 | 45 | 1003.0 |
| 20260831100759 | 30 | 135 | 1.6 | 9.7 | 0.00 | 0.00 | 0.00 | 44 | 1003.0 |
| 20260831100514 | 30 | 135 | 0.0 | 4.8 | 0.00 | 0.00 | 0.00 | 44 | 1003.0 |
| 20260831095012 | 31 | 135 | 0.0 | 9.7 | 0.00 | 0.00 | 0.00 | 40 | 1003.0 |
| 20260831093757 | 31 | 135 | 4.8 | 9.7 | 0.00 | 0.00 | 0.00 | 41 | 1003.0 |
| 20260831093514 | 31 | 135 | 4.8 | 4.8 | 0.00 | 0.00 | 0.00 | 41 | 1003.0 |